Regional Weather Roundup
Issued by NWS

Home | Current Version | Previous Version | Graphics & Text | Print | Product List | Glossary On
Versions: 1 2 3 4 5 6 7 8 9 10 11 12 13 14 15 16 17 18 19 20 21 22 23 24 25 26 27
000
ASUS45 KBOU 041907
RWRCO

WEATHER ROUNDUP FOR COLORADO
NATIONAL WEATHER SERVICE DENVER/BOULDER CO
100 PM MDT WED MAY 04 2016

NOTE: "FAIR" INDICATES FEW OR NO CLOUDS BELOW 12000 FEET WITH NO
SIGNIFICANT WEATHER AND/OR OBSTRUCTIONS TO VISIBILITY.

COZ001>005-013-030-031-042000-
...NORTHWEST COLORADO...

CITY           SKY/WX    TMP DP  RH WIND       PRES   REMARKS
CRAIG          FAIR      70  27  20 W10G18    30.24F
HAYDEN         FAIR      66  25  20 N6        30.26F
MEEKER         FAIR      72  26  18 W8        30.24F
MOUNT WERNER   NOT AVBL
STEAMBOAT SPGS FAIR      66  24  20 W6        30.27F
WALDEN         FAIR      61  18  18 CALM      30.35F
$$

COZ006>008-011-042000-
...WEST CENTRAL VALLEYS...

CITY           SKY/WX    TMP DP  RH WIND       PRES   REMARKS
GRAND JUNCTION FAIR      72  30  21 SW6       30.19F
MONTROSE       FAIR      73  25  16 N8        30.24F
EAGLE          SUNNY     70  18  13 NW8       30.27F
RIFLE          FAIR      72  26  18 VRB5      30.21F
DELTA          NOT AVBL
NUCLA          NOT AVBL
$$

COZ017>023-064>068-042000-
...SOUTHWEST COLORADO...

CITY           SKY/WX    TMP DP  RH WIND       PRES   REMARKS
DURANGO        FAIR      65  33  30 VRB5      30.32F
CORTEZ         FAIR      73  25  16 S15G21    30.27F
PAGOSA SPRINGS FAIR      63  26  24 SW6       30.38F
TELLURIDE      FAIR      60  21  22 SE5       30.42F
WOLF CREEK PAS FAIR      43  14  31 W12       30.59F
$$

COZ009-010-012-014-032>034-037-058>063-042000-
...CENTRAL COLORADO...

CITY           SKY/WX    TMP DP  RH WIND       PRES   REMARKS
ASPEN          FAIR      67  22  18 NW12G17   30.30F
BUENA VISTA    FAIR      64  16  15 CALM      30.32F
COPPER MTN     NOT AVBL
BERTHOUD PASS  FAIR      36  28  75 N13G21    30.56S
COTTONWOOD PAS FAIR      63  16  16 E6G17     30.43F
GUNNISON       FAIR      64  19  17 S8        30.35F
KREMMLING      FAIR      66  18  15 S3        30.31F
LEADVILLE      FAIR      55   7  14 N10G20    30.41F
MONARCH PASS   FAIR      43  12  28 W14G24    30.65S
SALIDA         FAIR      69  15  13 SW5       30.37F
SUNLIGHT       FAIR      52  23  32 SW5       30.52F
WILKERSON PASS FAIR      54  14  20 W5        30.52F
$$

COZ069>075-042000-
...SAN LUIS VALLEY/SANGRE DE CRISTO MOUNTAINS...

CITY           SKY/WX    TMP DP  RH WIND       PRES   REMARKS
ALAMOSA        FAIR      62  23  22 CALM      30.34F
LA VETA PASS   FAIR      55  23  28 S5        30.47F
SAGUACHE       FAIR      61  27  27 SW6       30.36F
$$

COZ035-036-038>040-042000-
...NORTHERN COLORADO FRONT RANGE...

CITY           SKY/WX    TMP DP  RH WIND       PRES   REMARKS
DENVER INTL AP FAIR      69  29  22 VRB5      30.21F
DMNS CITY PARK   N/A     72  27  18 NE6G17    30.20F
AURORA         FAIR      69  31  24 E5        30.23F
FRONT RANGE AP SUNNY     68  30  24 E3        30.24F
ERIE MUNI ARPT FAIR      71  30  22 E3        30.20F
BOULDER MUN AP FAIR      70  32  24 SE3       30.21F
CENTENNIAL     FAIR      70  24  17 NE8       30.23F
BROOMFIELD     MOSUNNY   70  28  21 E8        30.23F
FORT COLLINS   FAIR      72  37  28 E5        30.20F
LONGMONT       FAIR      73  33  23 CALM      30.21F
$$

COZ041-046-047-076>085-087-088-042000-
...PIKES PEAK/PALMER DIVIDE AND SOUTHERN FOOTHILLS...

CITY           SKY/WX    TMP DP  RH WIND       PRES   REMARKS
COLO. SPRINGS  FAIR      69  23  17 VRB3      30.26F
A. F. ACADEMY  FAIR      68  23  18 VRB1      30.26F
SCHRIEVER AFB  NOT AVBL
ELLICOTT       LGT RAIN N/A N/A N/A E10G20    30.25F
FALCON         NOT AVBL
FORT CARSON    FAIR      70  27  20 VRB3      30.24F
LIMON          FAIR      69  33  26 NW7       30.24F
MONUMENT HILL  FAIR      63  27  25 CALM      30.31F
TRINIDAD       FAIR      70  28  21 S7        30.25F
$$

COZ042>045-048>051-090-091-042000-
...NORTHEAST COLORADO...

CITY           SKY/WX    TMP DP  RH WIND       PRES   REMARKS
GREELEY ARPT   FAIR      72  39  30 E3        30.20F
AKRON          FAIR      70  36  28 VRB6      30.20F
BURLINGTON     FAIR      74  36  25 CALM      30.19F
WRAY           NOT AVBL
STERLING       FAIR      72  41  33 E7        30.17F
HOLYOKE        NOT AVBL
FORT MORGAN    FAIR      72  34  24 NE3       30.20F
$$

COZ086-089-092>099-042000-
...SOUTHEAST COLORADO...

CITY           SKY/WX    TMP DP  RH WIND       PRES   REMARKS
PUEBLO         FAIR      75  28  17 MISG      30.19F
LA JUNTA       FAIR      74  34  23 VRB3      30.18F
LAMAR          FAIR      76  42  29 VRB5      30.15F
SPRINGFIELD      N/A     73  37  27 N10       30.20F
$$




USA.gov is the U.S. government's official web portal to all federal, state and local government web resources and services.